,,Stat5,,Stat1,,Stat2,,Stat3,,Stat4,,Wind1,,Wind1,
time,status,PA1M_AVG,status,PR1M_SUM,status,RH1M_AVG,status,SR1M_AVG,status,TA1M_AVG,status,W1dAve1m,status,W1sAve1m,
2002-05-22, 00:00:01,VALID,919.518,VALID,0,VALID,97.0705,VALID,-0.0509425,VALID,20.6585,VALID,24,VALID,0.523655,
2002-05-22, 00:01:01,VALID,919.498,VALID,0,VALID,97.0336,VALID,-0.0509425,VALID,20.655,VALID,21,VALID,0.398872,
2002-05-22, 00:02:01,VALID,919.507,VALID,0,VALID,97.0234,VALID,-0.0509425,VALID,20.6582,VALID,18,VALID,0.51213,
2002-05-22, 00:03:01,VALID,919.5,VALID,0,VALID,97.0908,VALID,-0.0339617,VALID,20.6776,VALID,19,VALID,0.423109,
2002-05-22, 00:04:01,VALID,919.499,VALID,0,VALID,97.0705,VALID,-0.0169808,VALID,20.694,VALID,19,VALID,0.180889,
2002-05-22, 00:05:01,VALID,919.487,VALID,0,VALID,97.0082,VALID,-0.0679233,VALID,20.6873,VALID,18,VALID,0.0267857,
2002-05-22, 00:06:01,VALID,919.496,VALID,0,VALID,96.9115,VALID,-0.0679233,VALID,20.6644,VALID,15,VALID,0.108742,
2002-05-22, 00:07:01,VALID,919.487,VALID,0,VALID,96.8632,VALID,-0.0849042,VALID,20.6448,VALID,15,VALID,0.0615234,
2002-05-22, 00:08:01,VALID,919.478,VALID,0,VALID,96.8225,VALID,-0.0339617,VALID,20.6391,VALID,15,VALID,0.00625,
2002-05-22, 00:09:01,VALID,919.466,VALID,0,VALID,96.8734,VALID,-0.0509425,VALID,20.6291,VALID,15,VALID,0,
2002-05-22, 00:10:01,VALID,919.468,VALID,0,VALID,96.9014,VALID,-0.0509425,VALID,20.6257,VALID,15,VALID,0,
2002-05-22, 00:11:01,VALID,919.464,VALID,0,VALID,96.9268,VALID,-0.101885,VALID,20.6326,VALID,15,VALID,0,
2002-05-22, 00:12:01,VALID,919.472,VALID,0,VALID,97.0323,VALID,-0.0509425,VALID,20.6525,VALID,15,VALID,0,
2002-05-22, 00:13:01,VALID,919.464,VALID,0,VALID,97.1048,VALID,-0.0849042,VALID,20.6518,VALID,15,VALID,0.0960726,
2002-05-22, 00:14:01,VALID,919.447,VALID,0,VALID,97.1455,VALID,-0.0849042,VALID,20.6746,VALID,28,VALID,0.45662,
2002-05-22, 00:15:01,VALID,919.45,VALID,0,VALID,97.0756,VALID,-0.0509425,VALID,20.6841,VALID,30,VALID,0.00602679,
2002-05-22, 00:16:01,VALID,919.46,VALID,0,VALID,96.9916,VALID,-0.0679233,VALID,20.6706,VALID,30,VALID,0.0416667,
2002-05-22, 00:17:01,VALID,919.46,VALID,0,VALID,97.0183,VALID,-0.0509425,VALID,20.6808,VALID,30,VALID,0.21829,
2002-05-22, 00:18:01,VALID,919.459,VALID,0,VALID,96.9459,VALID,-0.0169808,VALID,20.6744,VALID,5,VALID,0.773003,
2002-05-22, 00:19:01,VALID,919.454,VALID,0,VALID,96.853,VALID,0,VALID,20.6453,VALID,12,VALID,0.697115,
2002-05-22, 00:20:00,VALID,919.452,VALID,0,VALID,97.0158,VALID,-0.0169808,VALID,20.6353,VALID,21,VALID,1.13502,
2002-05-22, 00:21:00,VALID,919.431,VALID,0,VALID,97.1341,VALID,0,VALID,20.6386,VALID,18,VALID,1.09492,
2002-05-22, 00:22:00,VALID,919.418,VALID,0,VALID,97.2193,VALID,-0.0509425,VALID,20.655,VALID,16,VALID,1.1192,
2002-05-22, 00:23:00,VALID,919.428,VALID,0,VALID,97.3477,VALID,-0.0509425,VALID,20.6712,VALID,20,VALID,0.96326,
2002-05-22, 00:24:00,VALID,919.422,VALID,0,VALID,97.4075,VALID,0.0169808,VALID,20.693,VALID,20,VALID,1.04821,
2002-05-22, 00:25:00,VALID,919.407,VALID,0,VALID,97.4164,VALID,0.0509425,VALID,20.7116,VALID,22,VALID,0.945313,
2002-05-22, 00:26:00,VALID,919.413,VALID,0,VALID,97.4405,VALID,0.0679233,VALID,20.7213,VALID,15,VALID,0.0859375,
2002-05-22, 00:27:00,VALID,919.397,VALID,0,VALID,97.4202,VALID,0.0679233,VALID,20.7342,VALID,16,VALID,0.180743,
2002-05-22, 00:28:00,VALID,919.401,VALID,0,VALID,97.4036,VALID,0.0509425,VALID,20.7536,VALID,2,VALID,0.701891,
2002-05-22, 00:29:00,VALID,919.384,VALID,0,VALID,97.3095,VALID,0.0169808,VALID,20.7471,VALID,8,VALID,0.89308,
2002-05-22, 00:30:00,VALID,919.371,VALID,0,VALID,97.3184,VALID,0.0849042,VALID,20.7568,VALID,21,VALID,0.845152,
2002-05-22, 00:31:00,VALID,919.353,VALID,0,VALID,97.3299,VALID,0.0509425,VALID,20.7663,VALID,16,VALID,0.894761,
2002-05-22, 00:32:00,VALID,919.339,VALID,0,VALID,97.2282,VALID,0.0509425,VALID,20.7531,VALID,17,VALID,0.970703,
2002-05-22, 00:33:00,VALID,919.303,VALID,0,VALID,97.2193,VALID,0.0679233,VALID,20.7566,VALID,21,VALID,0.791667,
2002-05-22, 00:34:00,VALID,919.277,VALID,0,VALID,97.1175,VALID,0.0849042,VALID,20.7235,VALID,352,VALID,0.621795,
2002-05-22, 00:35:00,VALID,919.242,VALID,0,VALID,97.0908,VALID,0.0849042,VALID,20.7345,VALID,340,VALID,0.913086,
2002-05-22, 00:36:00,VALID,919.198,VALID,0,VALID,97.0374,VALID,0.0679233,VALID,20.6949,VALID,3,VALID,1.05804,
2002-05-22, 00:37:00,VALID,919.169,VALID,0,VALID,97.04,VALID,0.0679233,VALID,20.6726,VALID,335,VALID,0.815667,
2002-05-22, 00:38:00,VALID,919.151,VALID,0,VALID,97.0972,VALID,0.0509425,VALID,20.6529,VALID,352,VALID,0.634152,
2002-05-22, 00:39:00,VALID,919.138,VALID,0,VALID,97.2345,VALID,0.0339617,VALID,20.6631,VALID,357,VALID,0.91913,
2002-05-22, 00:40:00,VALID,919.103,VALID,0,VALID,97.2968,VALID,0.0339617,VALID,20.6828,VALID,8,VALID,1.09128,
2002-05-22, 00:41:00,VALID,919.086,VALID,0,VALID,97.3617,VALID,0.0339617,VALID,20.6857,VALID,360,VALID,0.721073,
2002-05-22, 00:42:00,VALID,919.071,VALID,0,VALID,97.3604,VALID,0.0169808,VALID,20.6825,VALID,15,VALID,0.790707,
2002-05-22, 00:43:00,VALID,919.064,VALID,0,VALID,97.3986,VALID,0,VALID,20.6927,VALID,356,VALID,0.682813,
2002-05-22, 00:44:00,VALID,919.055,VALID,0,VALID,97.3083,VALID,0.0169808,VALID,20.6855,VALID,3,VALID,0.630208,
2002-05-22, 00:45:00,VALID,919.051,VALID,0,VALID,97.3261,VALID,0.0169808,VALID,20.6887,VALID,329,VALID,0.0836397,
2002-05-22, 00:46:00,VALID,919.055,VALID,0,VALID,97.3413,VALID,0,VALID,20.7054,VALID,268,VALID,0.211806,
2002-05-22, 00:47:00,VALID,919.044,VALID,0,VALID,97.2828,VALID,0,VALID,20.7054,VALID,275,VALID,0.350361,
2002-05-22, 00:48:00,VALID,919.043,VALID,0,VALID,97.2294,VALID,0.0509425,VALID,20.6987,VALID,302,VALID,0.334335,
2002-05-22, 00:49:00,VALID,919.033,VALID,0,VALID,97.2765,VALID,0.0169808,VALID,20.7051,VALID,343,VALID,0.398047,
2002-05-22, 00:50:00,VALID,919.031,VALID,0,VALID,97.382,VALID,0,VALID,20.7374,VALID,337,VALID,0.110045,
2002-05-22, 00:51:00,VALID,919.035,VALID,0,VALID,97.3668,VALID,0.0169808,VALID,20.7663,VALID,337,VALID,0,
2002-05-22, 00:52:00,VALID,919.025,VALID,0,VALID,97.3502,VALID,0,VALID,20.7732,VALID,337,VALID,0,
2002-05-22, 00:53:00,VALID,919.007,VALID,0,VALID,97.3045,VALID,0.0339617,VALID,20.7827,VALID,337,VALID,0.00570101,
2002-05-22, 00:54:00,VALID,919.007,VALID,0,VALID,97.279,VALID,0,VALID,20.7891,VALID,356,VALID,0.163035,
2002-05-22, 00:55:00,VALID,919.01,VALID,0,VALID,97.2154,VALID,-0.0679233,VALID,20.7805,VALID,341,VALID,0.0633446,
2002-05-22, 00:56:00,VALID,919.004,VALID,0,VALID,97.1366,VALID,-0.0679233,VALID,20.7778,VALID,337,VALID,0.100946,
2002-05-22, 00:57:00,VALID,919.003,VALID,0,VALID,97.1519,VALID,-0.0849042,VALID,20.784,VALID,344,VALID,0.322545,
2002-05-22, 00:58:00,VALID,919.001,VALID,0,VALID,97.143,VALID,-0.0679233,VALID,20.7902,VALID,333,VALID,0.154247,
2002-05-22, 00:59:00,VALID,918.992,VALID,0,VALID,97.1697,VALID,-0.0679233,VALID,20.7999,VALID,332,VALID,0,
2002-05-22, 01:00:00,VALID,919.004,VALID,0,VALID,97.0845,VALID,-0.101885,VALID,20.7864,VALID,332,VALID,0.0608108,
2002-05-22, 01:01:00,VALID,919.011,VALID,0,VALID,97.0044,VALID,-0.0339617,VALID,20.7904,VALID,317,VALID,0.116987,
2002-05-22, 01:02:00,VALID,919.018,VALID,0,VALID,96.9522,VALID,-0.0849042,VALID,20.774,VALID,288,VALID,0.000200321,
2002-05-22, 01:03:00,VALID,919.018,VALID,0,VALID,96.9319,VALID,-0.0679233,VALID,20.7676,VALID,241,VALID,0.348047,
2002-05-22, 01:04:00,VALID,919.021,VALID,0,VALID,96.9548,VALID,-0.0679233,VALID,20.7412,VALID,240,VALID,0.442411,
2002-05-22, 01:05:00,VALID,919.017,VALID,0,VALID,97.0832,VALID,-0.0509425,VALID,20.7611,VALID,344,VALID,0.245777,
2002-05-22, 01:06:00,VALID,919.022,VALID,0,VALID,97.1188,VALID,-0.0509425,VALID,20.7778,VALID,338,VALID,0.214062,
2002-05-22, 01:07:00,VALID,919.029,VALID,0,VALID,97.1722,VALID,-0.0509425,VALID,20.7549,VALID,320,VALID,0.18201,
2002-05-22, 01:08:00,VALID,919.025,VALID,0,VALID,97.2714,VALID,-0.0509425,VALID,20.7773,VALID,322,VALID,0.234992,
2002-05-22, 01:09:00,VALID,919.007,VALID,0,VALID,97.3337,VALID,0.0339617,VALID,20.7859,VALID,324,VALID,0.0190034,
2002-05-22, 01:10:00,VALID,918.997,VALID,0,VALID,97.3057,VALID,0.0339617,VALID,20.7816,VALID,324,VALID,0.00164474,
2002-05-22, 01:11:00,VALID,918.995,VALID,0,VALID,97.3299,VALID,0,VALID,20.7986,VALID,349,VALID,0.251563,
2002-05-22, 01:12:00,VALID,918.982,VALID,0,VALID,97.4202,VALID,0.0339617,VALID,20.8341,VALID,4,VALID,0.24359,
2002-05-22, 01:13:00,VALID,918.955,VALID,0,VALID,97.3998,VALID,0.0339617,VALID,20.85,VALID,5,VALID,0,
2002-05-22, 01:14:00,VALID,918.932,VALID,0,VALID,97.2816,VALID,0,VALID,20.8368,VALID,5,VALID,0.000868056,
2002-05-22, 01:15:00,VALID,918.934,VALID,0,VALID,97.2765,VALID,0.0509425,VALID,20.8371,VALID,5,VALID,0.0336538,
2002-05-22, 01:16:00,VALID,918.919,VALID,0,VALID,97.2981,VALID,0.0339617,VALID,20.8532,VALID,5,VALID,0.107772,
2002-05-22, 01:17:00,VALID,918.906,VALID,0,VALID,97.1976,VALID,0.0679233,VALID,20.8403,VALID,5,VALID,0.0953125,
2002-05-22, 01:18:00,VALID,918.915,VALID,0,VALID,97.0984,VALID,0.0509425,VALID,20.8115,VALID,4,VALID,0.0261161,
2002-05-22, 01:19:00,VALID,918.901,VALID,0,VALID,97.1569,VALID,0.0339617,VALID,20.8212,VALID,4,VALID,0,
2002-05-22, 01:20:00,VALID,918.89,VALID,0,VALID,97.218,VALID,0.0509425,VALID,20.8239,VALID,4,VALID,0.0571429,
2002-05-22, 01:21:00,VALID,918.88,VALID,0,VALID,97.2421,VALID,0.0679233,VALID,20.8365,VALID,324,VALID,0.153294,
2002-05-22, 01:22:00,VALID,918.877,VALID,0,VALID,97.1557,VALID,0.0849042,VALID,20.8298,VALID,205,VALID,0.310855,
2002-05-22, 01:23:00,VALID,918.86,VALID,0,VALID,97.087,VALID,0.0169808,VALID,20.8212,VALID,269,VALID,0.524704,
2002-05-22, 01:24:00,VALID,918.849,VALID,0,VALID,97.1404,VALID,-0.0339617,VALID,20.8088,VALID,307,VALID,0.30736,
2002-05-22, 01:25:00,VALID,918.851,VALID,0,VALID,97.2243,VALID,-0.0509425,VALID,20.8225,VALID,332,VALID,0.14308,
2002-05-22, 01:26:00,VALID,918.834,VALID,0,VALID,97.251,VALID,-0.0679233,VALID,20.809,VALID,284,VALID,0.174079,
2002-05-22, 01:27:00,VALID,918.822,VALID,0,VALID,97.2638,VALID,-0.0509425,VALID,20.8287,VALID,207,VALID,0.258961,
2002-05-22, 01:28:00,VALID,918.792,VALID,0,VALID,97.204,VALID,-0.0849042,VALID,20.8257,VALID,207,VALID,0.155599,
2002-05-22, 01:29:00,VALID,918.788,VALID,0,VALID,97.1163,VALID,-0.0679233,VALID,20.8063,VALID,237,VALID,0.315705,
2002-05-22, 01:30:00,VALID,918.753,VALID,0,VALID,97.0921,VALID,-0.0849042,VALID,20.784,VALID,237,VALID,0.0228365,
2002-05-22, 01:31:00,VALID,918.735,VALID,0,VALID,97.1468,VALID,-0.0679233,VALID,20.7773,VALID,237,VALID,0,
2002-05-22, 01:32:00,VALID,918.714,VALID,0,VALID,97.2129,VALID,-0.0849042,VALID,20.777,VALID,306,VALID,0.217634,
2002-05-22, 01:33:00,VALID,918.703,VALID,0,VALID,97.3146,VALID,-0.0849042,VALID,20.8101,VALID,21,VALID,0.478252,
2002-05-22, 01:34:00,VALID,918.683,VALID,0,VALID,97.4151,VALID,-0.0849042,VALID,20.8252,VALID,20,VALID,0.104464,
2002-05-22, 01:35:00,VALID,918.667,VALID,0,VALID,97.4075,VALID,-0.0849042,VALID,20.8513,VALID,9,VALID,0.00358953,
2002-05-22, 01:36:00,VALID,918.656,VALID,0,VALID,97.2129,VALID,-0.101885,VALID,20.8319,VALID,258,VALID,0.492599,
2002-05-22, 01:37:00,VALID,918.656,VALID,0,VALID,97.0476,VALID,-0.0509425,VALID,20.7969,VALID,243,VALID,0.289907,
2002-05-22, 01:38:00,VALID,918.658,VALID,0,VALID,97.0361,VALID,-0.0679233,VALID,20.767,VALID,243,VALID,0.217928,
2002-05-22, 01:39:00,VALID,918.645,VALID,0,VALID,97.0654,VALID,-0.0339617,VALID,20.767,VALID,242,VALID,0.196652,
2002-05-22, 01:40:00,VALID,918.641,VALID,0,VALID,97.0883,VALID,0.0339617,VALID,20.7598,VALID,242,VALID,0.257813,
2002-05-22, 01:41:00,VALID,918.627,VALID,0,VALID,97.1391,VALID,0.0339617,VALID,20.7434,VALID,242,VALID,0.0795037,
2002-05-22, 01:42:00,VALID,918.622,VALID,0,VALID,97.204,VALID,0.0509425,VALID,20.7434,VALID,241,VALID,0.0256076,
2002-05-22, 01:43:00,VALID,918.609,VALID,0,VALID,97.2472,VALID,0.0339617,VALID,20.7628,VALID,241,VALID,0,
2002-05-22, 01:44:00,VALID,918.61,VALID,0,VALID,97.2943,VALID,0.0509425,VALID,20.763,VALID,241,VALID,0.0160256,
2002-05-22, 01:45:00,VALID,918.586,VALID,0,VALID,97.2956,VALID,0,VALID,20.7891,VALID,241,VALID,0.00195313,
2002-05-22, 01:46:00,VALID,918.57,VALID,0,VALID,97.3083,VALID,0,VALID,20.7889,VALID,241,VALID,0,
2002-05-22, 01:47:00,VALID,918.544,VALID,0,VALID,97.2714,VALID,0,VALID,20.8085,VALID,241,VALID,0,
2002-05-22, 01:48:00,VALID,918.532,VALID,0,VALID,97.1926,VALID,0.0339617,VALID,20.805,VALID,241,VALID,0,
2002-05-22, 01:49:00,VALID,918.505,VALID,0,VALID,97.143,VALID,0.0509425,VALID,20.8112,VALID,241,VALID,0.0337838,
2002-05-22, 01:50:00,VALID,918.489,VALID,0,VALID,97.1074,VALID,0.0509425,VALID,20.8212,VALID,229,VALID,0.063528,
2002-05-22, 01:51:00,VALID,918.456,VALID,0,VALID,96.9471,VALID,0,VALID,20.8015,VALID,107,VALID,0.315245,
2002-05-22, 01:52:00,VALID,918.448,VALID,0,VALID,96.9204,VALID,0.0169808,VALID,20.7988,VALID,107,VALID,0.148438,
2002-05-22, 01:53:00,VALID,918.433,VALID,0,VALID,96.9306,VALID,0.0169808,VALID,20.7859,VALID,107,VALID,0.00892857,
2002-05-22, 01:54:00,VALID,918.423,VALID,0,VALID,96.9815,VALID,0,VALID,20.7762,VALID,107,VALID,0,
2002-05-22, 01:55:00,VALID,918.411,VALID,0,VALID,97.0908,VALID,0.0169808,VALID,20.7792,VALID,107,VALID,0,
2002-05-22, 01:56:00,VALID,918.388,VALID,0,VALID,97.1748,VALID,0.0339617,VALID,20.7986,VALID,107,VALID,0.0167101,
2002-05-22, 01:57:00,VALID,918.371,VALID,0,VALID,97.246,VALID,0.0169808,VALID,20.8247,VALID,107,VALID,0,
2002-05-22, 01:58:00,VALID,918.367,VALID,0,VALID,97.1582,VALID,0,VALID,20.8279,VALID,107,VALID,0,
2002-05-22, 01:59:00,VALID,918.361,VALID,0,VALID,97.2498,VALID,0.0509425,VALID,20.8336,VALID,107,VALID,0,
2002-05-22, 02:00:00,VALID,918.35,VALID,0,VALID,97.2498,VALID,0.0339617,VALID,20.8567,VALID,107,VALID,0,
2002-05-22, 02:01:00,VALID,918.343,VALID,0,VALID,97.2828,VALID,0.0339617,VALID,20.8729,VALID,107,VALID,0.0101351,
2002-05-22, 02:02:00,VALID,918.34,VALID,0,VALID,97.1544,VALID,0.0509425,VALID,20.8597,VALID,107,VALID,0.221652,
2002-05-22, 02:03:00,VALID,918.339,VALID,0,VALID,97.0578,VALID,0.0509425,VALID,20.847,VALID,107,VALID,0.114443,
2002-05-22, 02:04:00,VALID,918.314,VALID,0,VALID,97.1124,VALID,0.0509425,VALID,20.8505,VALID,105,VALID,0.0520148,
2002-05-22, 02:05:00,VALID,918.299,VALID,0,VALID,97.101,VALID,0.0679233,VALID,20.8565,VALID,97,VALID,0.216216,
2002-05-22, 02:06:00,VALID,918.299,VALID,0,VALID,97.1595,VALID,0.0339617,VALID,20.8756,VALID,92,VALID,0.0246711,
2002-05-22, 02:07:00,VALID,918.293,VALID,0,VALID,97.1646,VALID,0.0169808,VALID,20.8855,VALID,92,VALID,0.04375,
2002-05-22, 02:08:00,VALID,918.29,VALID,0,VALID,97.0311,VALID,0.0339617,VALID,20.8758,VALID,92,VALID,0.219551,
2002-05-22, 02:09:00,VALID,918.283,VALID,0,VALID,96.942,VALID,0.0509425,VALID,20.85,VALID,92,VALID,0.0110294,
2002-05-22, 02:10:00,VALID,918.254,VALID,0,VALID,96.9064,VALID,0.0169808,VALID,20.8309,VALID,92,VALID,0,
2002-05-22, 02:11:00,VALID,918.253,VALID,0,VALID,96.8581,VALID,0.0679233,VALID,20.8279,VALID,118,VALID,0.203726,
2002-05-22, 02:12:00,VALID,918.24,VALID,0,VALID,96.7221,VALID,0.0339617,VALID,20.7854,VALID,179,VALID,0.0785256,
2002-05-22, 02:13:00,VALID,918.22,VALID,0,VALID,96.7895,VALID,0.0169808,VALID,20.8018,VALID,179,VALID,0.05625,
2002-05-22, 02:14:00,VALID,918.217,VALID,0,VALID,96.75,VALID,0.0339617,VALID,20.7986,VALID,180,VALID,0.172768,
2002-05-22, 02:15:00,VALID,918.206,VALID,0,VALID,96.7538,VALID,-0.0169808,VALID,20.7956,VALID,180,VALID,0.0601774,
2002-05-22, 02:16:00,VALID,918.221,VALID,0,VALID,96.7907,VALID,0.0339617,VALID,20.7983,VALID,204,VALID,0.185045,
2002-05-22, 02:17:00,VALID,918.208,VALID,0,VALID,96.7437,VALID,0,VALID,20.7792,VALID,261,VALID,0.0532095,
2002-05-22, 02:18:00,VALID,918.193,VALID,0,VALID,96.937,VALID,0.0679233,VALID,20.7956,VALID,261,VALID,0.0476974,
2002-05-22, 02:19:00,VALID,918.198,VALID,0,VALID,96.9179,VALID,0.0509425,VALID,20.7891,VALID,261,VALID,0.103252,
2002-05-22, 02:20:00,VALID,918.185,VALID,0,VALID,96.9777,VALID,0.0169808,VALID,20.773,VALID,261,VALID,0.00657895,
2002-05-22, 02:21:00,VALID,918.19,VALID,0,VALID,97.0807,VALID,0.0169808,VALID,20.7827,VALID,261,VALID,0.0174107,
2002-05-22, 02:22:00,VALID,918.195,VALID,0,VALID,97.1938,VALID,0.0169808,VALID,20.7918,VALID,261,VALID,0.00120192,
2002-05-22, 02:23:00,VALID,918.186,VALID,0,VALID,97.2332,VALID,0.0339617,VALID,20.7953,VALID,261,VALID,0,
2002-05-22, 02:24:00,VALID,918.18,VALID,0,VALID,97.2523,VALID,-0.0169808,VALID,20.8026,VALID,261,VALID,0,
2002-05-22, 02:25:00,VALID,918.183,VALID,0,VALID,97.396,VALID,-0.0169808,VALID,20.8158,VALID,261,VALID,0,
2002-05-22, 02:26:00,VALID,918.178,VALID,0,VALID,97.4698,VALID,-0.101885,VALID,20.8459,VALID,261,VALID,0,
2002-05-22, 02:27:00,VALID,918.188,VALID,0,VALID,97.4977,VALID,-0.0849042,VALID,20.8451,VALID,261,VALID,0,
2002-05-22, 02:28:00,VALID,918.169,VALID,0,VALID,97.5015,VALID,-0.0849042,VALID,20.8553,VALID,261,VALID,0,
2002-05-22, 02:29:00,VALID,918.171,VALID,0,VALID,97.4927,VALID,-0.0849042,VALID,20.8553,VALID,261,VALID,0,
2002-05-22, 02:30:00,VALID,918.164,VALID,0,VALID,97.3795,VALID,-0.0849042,VALID,20.8255,VALID,261,VALID,0,
2002-05-22, 02:31:00,VALID,918.159,VALID,0,VALID,97.3095,VALID,-0.0679233,VALID,20.8098,VALID,261,VALID,0.052576,
2002-05-22, 02:32:00,VALID,918.145,VALID,0,VALID,97.2243,VALID,-0.0679233,VALID,20.7745,VALID,261,VALID,0,
2002-05-22, 02:33:00,VALID,918.138,VALID,0,VALID,97.204,VALID,-0.101885,VALID,20.7487,VALID,261,VALID,0,
2002-05-22, 02:34:00,VALID,918.134,VALID,0.2,VALID,97.218,VALID,-0.0849042,VALID,20.7452,VALID,261,VALID,0,
2002-05-22, 02:35:00,VALID,918.122,VALID,0,VALID,97.3159,VALID,-0.0679233,VALID,20.7422,VALID,261,VALID,0,
2002-05-22, 02:36:00,VALID,918.106,VALID,0,VALID,97.396,VALID,-0.0509425,VALID,20.7514,VALID,265,VALID,0,
2002-05-22, 02:37:00,VALID,918.098,VALID,0,VALID,97.5194,VALID,-0.0679233,VALID,20.7773,VALID,19,VALID,0.617188,
2002-05-22, 02:38:00,VALID,918.081,VALID,0,VALID,97.6427,VALID,-0.0849042,VALID,20.82,VALID,20,VALID,0.792101,
2002-05-22, 02:39:00,VALID,918.063,VALID,0,VALID,97.7203,VALID,-0.0509425,VALID,20.8252,VALID,20,VALID,0.831731,
2002-05-22, 02:40:00,VALID,918.045,VALID,0,VALID,97.6885,VALID,0.0509425,VALID,20.8344,VALID,21,VALID,0.71875,
2002-05-22, 02:41:00,VALID,918.032,VALID,0,VALID,97.6618,VALID,0.0509425,VALID,20.8179,VALID,19,VALID,0.909961,
2002-05-22, 02:42:00,VALID,918.004,VALID,0,VALID,97.5715,VALID,0.0339617,VALID,20.7856,VALID,13,VALID,1.31518,
2002-05-22, 02:43:00,VALID,917.977,VALID,0,VALID,97.4342,VALID,0.0679233,VALID,20.7339,VALID,11,VALID,1.12542,
2002-05-22, 02:44:00,VALID,917.944,VALID,0,VALID,97.5155,VALID,0.0169808,VALID,20.7146,VALID,24,VALID,1.12388,
2002-05-22, 02:45:00,VALID,917.926,VALID,0,VALID,97.4609,VALID,0,VALID,20.6823,VALID,31,VALID,1.50507,
2002-05-22, 02:46:00,VALID,917.894,VALID,0,VALID,97.5168,VALID,0.0339617,VALID,20.6532,VALID,23,VALID,1.35382,
2002-05-22, 02:47:00,VALID,917.855,VALID,0,VALID,97.4774,VALID,0,VALID,20.6308,VALID,32,VALID,1.57834,
2002-05-22, 02:48:00,VALID,917.832,VALID,0,VALID,97.4418,VALID,0.0169808,VALID,20.5985,VALID,21,VALID,1.57011,
2002-05-22, 02:49:00,VALID,917.79,VALID,0,VALID,97.4469,VALID,0.0339617,VALID,20.5791,VALID,17,VALID,1.38437,
2002-05-22, 02:50:00,VALID,917.768,VALID,0,VALID,97.527,VALID,0.0339617,VALID,20.5625,VALID,21,VALID,1.59716,
2002-05-22, 02:51:00,VALID,917.738,VALID,0,VALID,97.4647,VALID,0.0509425,VALID,20.5438,VALID,24,VALID,1.73874,
2002-05-22, 02:52:00,VALID,917.713,VALID,0,VALID,97.4443,VALID,0.0169808,VALID,20.5081,VALID,14,VALID,1.68707,
2002-05-22, 02:53:00,VALID,917.707,VALID,0,VALID,97.5461,VALID,0.0169808,VALID,20.4984,VALID,14,VALID,1.67929,
2002-05-22, 02:54:00,VALID,917.693,VALID,0,VALID,97.6732,VALID,0.0339617,VALID,20.4787,VALID,19,VALID,1.28886,
2002-05-22, 02:55:00,VALID,917.679,VALID,0,VALID,97.7126,VALID,0.0509425,VALID,20.4787,VALID,14,VALID,1.46484,
2002-05-22, 02:56:00,VALID,917.669,VALID,0,VALID,97.719,VALID,0.0339617,VALID,20.4529,VALID,4,VALID,1.17857,
2002-05-22, 02:57:00,VALID,917.657,VALID,0,VALID,97.7177,VALID,0.0169808,VALID,20.4208,VALID,8,VALID,1.16491,
2002-05-22, 02:58:00,VALID,917.648,VALID,0,VALID,97.808,VALID,0.0169808,VALID,20.3915,VALID,8,VALID,1.23281,
2002-05-22, 02:59:00,VALID,917.633,VALID,0,VALID,97.8767,VALID,0.0169808,VALID,20.3821,VALID,7,VALID,1.6497,
2002-05-22, 03:00:00,VALID,917.616,VALID,0,VALID,98.0089,VALID,0,VALID,20.3691,VALID,21,VALID,1.81332,
2002-05-22, 03:01:00,VALID,917.604,VALID,0,VALID,98.1119,VALID,0.0169808,VALID,20.3592,VALID,19,VALID,1.27555,
2002-05-22, 03:02:00,VALID,917.589,VALID,0,VALID,98.2009,VALID,0,VALID,20.3463,VALID,26,VALID,1.05016,
2002-05-22, 03:03:00,VALID,917.57,VALID,0,VALID,98.2505,VALID,0,VALID,20.3336,VALID,13,VALID,0.942634,
2002-05-22, 03:04:00,VALID,917.56,VALID,0,VALID,98.3217,VALID,0,VALID,20.3304,VALID,14,VALID,0.785457,
2002-05-22, 03:05:00,VALID,917.568,VALID,0,VALID,98.3828,VALID,0.0339617,VALID,20.3239,VALID,4,VALID,0.740579,
2002-05-22, 03:06:00,VALID,917.581,VALID,0,VALID,98.4069,VALID,0.0339617,VALID,20.3212,VALID,7,VALID,0.767361,
2002-05-22, 03:07:00,VALID,917.597,VALID,0,VALID,98.4158,VALID,0.0169808,VALID,20.2951,VALID,13,VALID,0.736579,
2002-05-22, 03:08:00,VALID,917.614,VALID,0,VALID,98.4756,VALID,0.0339617,VALID,20.2921,VALID,22,VALID,0.510216,
2002-05-22, 03:09:00,VALID,917.635,VALID,0,VALID,98.4527,VALID,0.0169808,VALID,20.2561,VALID,25,VALID,0.653125,
2002-05-22, 03:10:00,VALID,917.666,VALID,0,VALID,98.4896,VALID,0,VALID,20.2372,VALID,7,VALID,0.67433,
2002-05-22, 03:11:00,VALID,917.703,VALID,0,VALID,98.5239,VALID,-0.0169808,VALID,20.2471,VALID,357,VALID,0.649916,
2002-05-22, 03:12:00,VALID,917.721,VALID,0,VALID,98.5277,VALID,0,VALID,20.228,VALID,346,VALID,0.498437,
2002-05-22, 03:13:00,VALID,917.726,VALID,0,VALID,98.5354,VALID,0.0169808,VALID,20.2181,VALID,348,VALID,0.442779,
2002-05-22, 03:14:00,VALID,917.743,VALID,0,VALID,98.5684,VALID,0,VALID,20.2079,VALID,347,VALID,0.473067,
2002-05-22, 03:15:00,VALID,917.754,VALID,0,VALID,98.5557,VALID,0,VALID,20.1954,VALID,1,VALID,0.644003,
2002-05-22, 03:16:00,VALID,917.756,VALID,0,VALID,98.5557,VALID,0,VALID,20.1731,VALID,1,VALID,0.86287,
2002-05-22, 03:17:00,VALID,917.766,VALID,0,VALID,98.5532,VALID,0,VALID,20.1597,VALID,357,VALID,0.761161,
2002-05-22, 03:18:00,VALID,917.772,VALID,0,VALID,98.5557,VALID,0.0169808,VALID,20.1761,VALID,348,VALID,0.770032,
2002-05-22, 03:19:00,VALID,917.786,VALID,0,VALID,98.5443,VALID,0,VALID,20.1631,VALID,335,VALID,0.656939,
2002-05-22, 03:20:00,VALID,917.8,VALID,0,VALID,98.5481,VALID,0,VALID,20.1599,VALID,322,VALID,0.814019,
2002-05-22, 03:21:00,VALID,917.826,VALID,0,VALID,98.557,VALID,0.0169808,VALID,20.1785,VALID,325,VALID,0.603165,
2002-05-22, 03:22:00,VALID,917.85,VALID,0,VALID,98.5633,VALID,0,VALID,20.1887,VALID,311,VALID,0.430288,
2002-05-22, 03:23:00,VALID,917.869,VALID,0,VALID,98.5672,VALID,-0.0169808,VALID,20.2022,VALID,297,VALID,0.625781,
2002-05-22, 03:24:00,VALID,917.877,VALID,0,VALID,98.543,VALID,0,VALID,20.2156,VALID,297,VALID,0.507589,
2002-05-22, 03:25:00,VALID,917.887,VALID,0,VALID,98.5506,VALID,0,VALID,20.2024,VALID,310,VALID,0.490287,
2002-05-22, 03:26:00,VALID,917.904,VALID,0,VALID,98.5481,VALID,0,VALID,20.2188,VALID,310,VALID,0.163393,
2002-05-22, 03:27:00,VALID,917.934,VALID,0,VALID,98.5417,VALID,0,VALID,20.1989,VALID,310,VALID,0,
2002-05-22, 03:28:00,VALID,917.944,VALID,0,VALID,98.5735,VALID,0,VALID,20.1994,VALID,310,VALID,0,
2002-05-22, 03:29:00,VALID,917.964,VALID,0,VALID,98.5811,VALID,0,VALID,20.1984,VALID,310,VALID,0,
2002-05-22, 03:30:00,VALID,917.978,VALID,0,VALID,98.5837,VALID,0,VALID,20.2059,VALID,310,VALID,0,
2002-05-22, 03:31:00,VALID,917.978,VALID,0,VALID,98.5494,VALID,0.0169808,VALID,20.1895,VALID,310,VALID,0,
2002-05-22, 03:32:00,VALID,917.98,VALID,0,VALID,98.4921,VALID,-0.0169808,VALID,20.1671,VALID,313,VALID,0.00240385,
2002-05-22, 03:33:00,VALID,917.977,VALID,0,VALID,98.4375,VALID,0,VALID,20.1214,VALID,37,VALID,0.401654,
2002-05-22, 03:34:00,VALID,917.974,VALID,0,VALID,98.4883,VALID,0,VALID,20.0995,VALID,39,VALID,0.538194,